This demonstration page uses our WeatherBlox Daily Observations layout. Learn more.

Left ArrowRight Arrow

Hourly Observations for December 8, 2018

Temp ( °F °C ) Dew Point ( °F °C ) Humidity (%) Winds ( mph kmh ) Pressure ( in mb ) Visibility ( mi km ) Precip ( " mm )
12:57 am 00:57 Clear 10 -12.2 8 -13.3 92 92 NNW 3 6 30.52 1034 9 14 0.00 0.00
1:57 am 01:57 Clear 10 -12.2 7 -13.9 87 87 NW 3 6 30.51 1033 10 16 0.00 0.00
2:57 am 02:57 Clear 9 -12.8 6 -14.4 88 88 Calm 30.51 1033 10 16 0.00 0.00
3:25 am 03:25 Partly Cloudy 9 -13 7 -14 92 92 Calm 30.62 1037 10 16 0.00 0.00
3:34 am 03:34 Mostly Cloudy 9 -13 5 -15 85 85 Calm 30.62 1037 10 16 0.00 0.00
3:57 am 03:57 Cloudy with Mist and Fog 8 -13.3 5 -15 87 87 Calm 30.50 1033 2 3 0.00 0.00
4:00 am 04:00 Cloudy with Mist and Fog 9 -13 5 -15 85 85 Calm 30.62 1037 1 1 0.00 0.00
4:04 am 04:04 Cloudy with Freezing Fog 9 -13 5 -15 85 85 Calm 30.62 1037 0 0 0.00 0.00
4:12 am 04:12 Cloudy with Freezing Fog 9 -13 7 -14 92 92 Calm 30.62 1037 0 0 0.00 0.00
4:19 am 04:19 Cloudy with Mist and Fog 9 -13 7 -14 92 92 Calm 30.62 1037 1 1 0.00 0.00
4:22 am 04:22 Mostly Cloudy with Mist and Fog 9 -13 7 -14 92 92 Calm 30.59 1036 2 2 0.00 0.00
4:24 am 04:24 Mostly Cloudy with Mist and Fog 9 -13 7 -14 92 92 Calm 30.59 1036 3 5 0.00 0.00
4:44 am 04:44 Mostly Clear with Mist and Fog 9 -13 5 -15 85 85 Calm 30.59 1036 4 6 0.00 0.00
4:47 am 04:47 Mostly Clear with Mist and Fog 9 -13 5 -15 85 85 SSW 3 6 30.59 1036 2 2 0.00 0.00
4:57 am 04:57 Mostly Clear with Mist and Fog 8 -13.3 5 -15 87 87 S 3 6 30.48 1032 2 3 0.00 0.00
5:07 am 05:07 Clear with Mist and Fog 9 -13 5 -15 85 85 Calm 30.59 1036 4 6 0.00 0.00
5:57 am 05:57 Clear 7 -13.9 4 -15.6 87 87 Calm 30.50 1033 7 11 0.00 0.00
6:57 am 06:57 Clear 7 -13.9 4 -15.6 87 87 S 3 6 30.51 1033 7 11 0.00 0.00
7:57 am 07:57 Sunny 9 -12.8 6 -14.4 88 88 SSW 6 9 30.51 1033 8 13 0.00 0.00
8:57 am 08:57 Sunny 14 -10 11 -11.7 88 88 SSW 8 13 30.50 1033 8 13 0.00 0.00
9:57 am 09:57 Sunny 21 -6.1 18 -7.8 88 88 SSW 7 11 30.49 1033 9 14 0.00 0.00
10:57 am 10:57 Sunny 26 -3.3 20 -6.7 78 78 SSW 13 20 30.50 1033 10 16 0.00 0.00
11:57 am 11:57 Sunny 28 -2.2 21 -6.1 75 75 SSW 16 26 30.47 1032 10 16 0.00 0.00
12:57 pm 12:57 Sunny 30 -1.1 22 -5.6 72 72 SSW 14 22 30.43 1030 10 16 0.00 0.00
1:57 pm 13:57 Sunny 31 -0.6 22 -5.6 69 69 S 16 26 30.38 1029 10 16 0.00 0.00
2:57 pm 14:57 Sunny 31 -0.6 22 -5.6 69 69 S 14 22 30.38 1029 10 16 0.00 0.00
3:57 pm 15:57 Sunny 30 -1.1 22 -5.6 72 72 S 13 20 30.38 1029 10 16 0.00 0.00
5:57 pm 17:57 Clear 24 -4.4 20 -6.7 84 84 S 6 9 30.40 1030 10 16 0.00 0.00
6:57 pm 18:57 Clear 22 -5.6 18 -7.8 85 85 S 10 17 30.40 1030 10 16 0.00 0.00
7:57 pm 19:57 Clear 21 -6.1 17 -8.3 85 85 S 8 13 30.41 1030 10 16 0.00 0.00
8:57 pm 20:57 Clear 22 -5.6 17 -8.3 82 82 SSW 12 19 30.40 1030 10 16 0.00 0.00
9:57 pm 21:57 Clear 23 -5 17 -8.3 78 78 SW 9 15 30.40 1030 10 16 0.00 0.00
10:57 pm 22:57 Clear 21 -6.1 16 -8.9 81 81 W 6 9 30.41 1030 10 16 0.00 0.00
11:57 pm 23:57 Clear 19 -7.2 15 -9.4 84 84 SW 7 11 30.40 1030 10 16 0.00 0.00

Powered by AerisWeather